Погода в Архангельске

Погода в Архангельске : погода сейчас, прогноз погоды и архив. Всё, что Вы хотите узнать о погоде в Архангельске!

Хотите узнать прогноз погоды в Архангельске? Тогда Вам сюда: Погода в Архангельске

Поиск расширенной информации на нашем сайте:

Другие новости

Новости СМИ2

Главная страница сайта

Новости сайта

03.07.2017

Напоминаем, что на нашем специализированном сайте Метеоцентр.Азия вы можете получить высокодетализированные автоматические прогнозы погоды по пунктам России, СНГ и мира в авиационном формате (включающие направление и скорость ветра, видимость, явления погоды, количество и форму облачности, нижнюю и верхнюю границу облачности).


Погода в Архангельске - сегодня

Время (UTC), дата Ветер
(°,м/с) 
Видим.   Явления Облачность Т
(°С)
Тd
(°С)
f(%) Тe
(°С)
Pmin
(гПа)
dP
(гПа)
Po
(мм)
O2
(г/м3)
Тmin Tmax R s Состояние
почвы
09 13.01.18 290 (З) 4000 м  слаб. снег  10/10 330 м 
[Frnb|Ns]
-0.9 -1.1 99 -3  1030.5  1.1  772  312           
12 13.01.18 310 (СЗ) 4000 м  снежные зёрна  10/10 270 м 
[St]
-0.1 -0.4 98 -2  1031.4  0.9  773  312           
15 13.01.18 310 (СЗ) 15000 м  {снег}  10/10 240 м 
[St]
+0 -0.6 96 -2  1032.6  1.2  774  312    +0.2  0.4     
18 13.01.18 310 (СЗ) 21000 м  {снег}  10/10 210 м 
[St]
-0.1 -0.7 96 -2  1033.9  1.3  775  312           
21 13.01.18 300 (СЗ) 19000 м    10/10 240 м 
[St]
-0.4 -0.6 99 -2  1034.9  775  313           
00 14.01.18 280 (З) 0500 м  туман{морось} [диам. гололёда 1 мм]  ?/?  
-1.9 -2 99 -4  1035.6  0.7  776  315           
03 14.01.18 270 (З) 11000 м  слаб. ливневой снег{туман} [диам. сложн. отлож. 2 мм]  10/10 420 м кучево-дожд. 
[Cb cap]
-3.3 -3.4 99 -4  1035.6  776  317  -3.3    0.3  22  равномерный
сухой снег
100% 
06 14.01.18 290 (З) 14000 м  {ливн. осадки, туман} [диам. гололёда 1 мм]  10/10 240 м 
[St]
-5 -5.2 99 -6  1035.9  0.3  776  319  -5         
09 14.01.18 230 (ЮЗ) 4000 м  дымка [диам. гололёда 1 мм]  10/10 150 м 
[St]
-5.2 -5.4 98 -8  1036.2  0.2  776  320           
12 14.01.18 220 (ЮЗ) 2000 м  дымка [диам. гололёда 1 мм]  10/10 120 м 
[St]
-4.6 -4.8 98 -6  1035.8  -0.4  776  319           
15 14.01.18 270 (З) 15000 м  [диам. гололёда 1 мм]  10/10 120 м 
[St]
-5 -5.2 99 -6  1035.3  -0.5  776  319    -3.3  0.2     
18 14.01.18 250 (З) 13000 м  [диам. гололёда 1 мм]  10/10 120 м 
[St]
-6.1 -6.5 97 -9  1035.4  0.1  776  320           
21 14.01.18 240 (ЮЗ) 8000 м  снежные зёрна [диам. гололёда 1 мм]  10/10 270 м 
[St]
-6.5 -6.8 98 -8  1035.4  776  321           
00 15.01.18 230 (ЮЗ) 15000 м  {снег} [диам. гололёда 1 мм]  10/10 240 м 
[St]
-7.2 -7.7 96 -9  1035  -0.4  775  322           
03 15.01.18 230 (ЮЗ) 8000 м  снежные зёрна [диам. гололёда 1 мм]  10/10 240 м 
[St]
-7.6 -8.1 96 -9  1034.4  -0.6  775  322  -7.7    0.0  22  равномерный
сухой снег
100% 
06 15.01.18 210 (ЮЗ) 7000 м  слаб. переохл. морось (гололёд){снег} [диам. гололёда 1 мм]  10/10 240 м 
[St]
-7.3 -7.7 97 -9  1034  -0.4  775  322  -8.7         
09 15.01.18 230 (ЮЗ) 10 км  в посл. час переохл. осадки (гололёд){морось} [диам. гололёда 2 мм]  8/8 180 м 
[St]
-7.3 -7.8 96 -9  1033.8  -0.2  775  322           
12 15.01.18 210 (ЮЗ) 10 км  {морось} [диам. гололёда 2 мм]  10/10 240 м 
[St]
-7 -7.4 97 -8  1032.7  -1  774  321           
15 15.01.18 200 (Ю) 18000 м  [диам. гололёда 2 мм]  10/10 240 м 
[St]
-8.1 -8.6 96 -10  1031.9  -0.9  773  322    -6.9  0.3     
18 15.01.18 200 (Ю) 15000 м  [диам. гололёда 2 мм]  10/10 210 м 
[St]
-6.7 -7.1 97 -8  1030.6  -1.3  772  320           
21 15.01.18 190 (Ю) 16000 м  [диам. гололёда 2 мм]  10/10 240 м 
[St]
-6.5 -6.9 97 -8  1029.5  -1.3  771  319           
00 16.01.18 180 (Ю) 15000 м  [диам. гололёда 2 мм]  10/10 240 м 
[St]
-6.3 -6.7 97 -9  1028.4  -1.1  770  319           
03 16.01.18 200 (Ю) 15000 м  [диам. гололёда 2 мм]  10/10 240 м 
[St]
-6.5 -7 96 -9  1026.9  -1.5  769  318  -8.1      22  равномерный
сухой снег
100% 
06 16.01.18 160 (Ю) 18000 м  [диам. гололёда 2 мм]  10/10 270 м 
[St]
-6.5 -7 96 -8  1026  -0.9  769  318           
09 16.01.18 160 (Ю) 10 км  [диам. гололёда 2 мм]  10/10 210 м 
[St]
-6.6 -7.3 95 -9  1025.1  -0.9  768  318           
Время (UTC), дата Ветер
(°,м/с) 
Видим.   Явления Облачность Т
(°С)
Тd
(°С)
f(%) Тe
(°С)
Pmin
(гПа)
dP
(гПа)
Po
(мм)
O2
(г/м3)
Тmin Tmax R s Состояние
почвы

Для получения пояснительной информации подведите курсор к названию столбца.

ПОГОДА в Архангельске - архив

Всё, что Вы хотите узнать о погоде в Архангельске - удобно и подробно!

Выберите нужную дату (начиная с 1 января 2015* года) и нажмите кнопку "Найти".
Будут отображены архивные сводки погоды по пункту Архангельск, начиная с указанной даты.


Отображать данные в формате CSV (для использования в таблицах Excel)


Внимание! Наш архив погоды предназначен исключительно для личного некоммерческого использования в познавательных целях. Если Вам необходимы официальные справки о состоянии погоды (для производственных, юридических, коммерческих и т.п. целей), обращайтесь в органы Росгидромета.

*Примечание: данная дата относится к архиву по метеостанциям СССР (Россия, СНГ, Балтия).
Архив по метеостанциям Зарубежной Европы и Азии (кроме Китая) хранится 10 дней, по другим регионам земного шара (Китай, Африка, Америка, Австралия, Океания) - 1 день.

Архангельск - район местоположения метеостанции


Название, широта, долгота, высота метеостанции:
Архангельск (город) 64.5°ш. 40.7°д. 8 м над ур. моря [Российская Федерация]

Дополнительная информация

В oтличие oт бoльшинства пoгoдных сайтoв мы публикуем пoдрoбную метеoинфoрмацию в детальнoм прoфессиoнальнoм фoрмате.

Характеристики температуры и влажнoсти вoздуха измеряются на высoте 2 м в тени вдали oт зданий и деревьев.
Скoрoсть ветра измеряется на высoте 10 м (на урoвне рoста челoвека скoрoсть ветра ниже в 1.5-2 раза). Если метеoстанция нахoдится в гoрoде или в лесу, тo скoрoсть ветра занижена на 2-4 м/с пo сравнению с oткрытым местoм. Скoрoсть ветра над акватoриями крупных рек и oзёр, а также на вершинах хoлмoв на 2-5 м/с выше, чем в oбычных услoвиях.
Атмoсфернoе давление в разных тoчках местнoсти мoжет значительнo oтличаться oт давления на метеoстанции, в зависимoсти oт услoвий рельефа (при пoдъёме на 10 м давление пoнижается примернo на 1 мм рт.ст.).